This demonstration page uses our WeatherBlox Daily Observations layout. Learn more.

Left ArrowRight Arrow

39.51506, -84.39828

Hourly Observations for October 20, 2018

Temp ( °F °C ) Dew Point ( °F °C ) Humidity (%) Winds ( mph kmh ) Pressure ( in mb ) Visibility ( mi km ) Precip ( " mm )
12:15 am 00:15 Cloudy 48 8.9 46 7.8 93 93 SW 8 13 29.97 1015 10 16.0934 0 0
12:35 am 00:35 Cloudy 48 9 46 7.8 92 92 SW 7 11 29.97 1015 10 16.0934 0 0
12:55 am 00:55 Cloudy 48 9.1 46 8 93 93 SW 7 11 29.97 1015 10 16.0934 0 0
1:15 am 01:15 Cloudy 49 9.2 46 8 92 92 SW 9 15 29.94 1014 10 16.0934 0 0
1:35 am 01:35 Cloudy 49 9.3 47 8.1 92 92 SW 9 15 29.94 1014 10 16.0934 0 0
1:55 am 01:55 Cloudy 49 9.4 47 8.3 93 93 SW 9 15 29.94 1014 10 16.0934 0 0
2:15 am 02:15 Cloudy 49 9.4 47 8.3 93 93 SSW 10 17 29.94 1014 10 16.0934 0 0
2:35 am 02:35 Cloudy 49 9.6 47 8.4 92 92 SW 9 15 29.94 1014 10 16.0934 0 0
2:55 am 02:55 Cloudy 49 9.6 47 8.5 93 93 SW 9 15 29.94 1014 10 16.0934 0 0
3:15 am 03:15 Cloudy 50 9.8 47 8.6 92 92 SW 9 15 29.94 1014 10 16.0934 0 0
3:35 am 03:35 Cloudy 50 10 48 8.7 92 92 SW 10 17 29.94 1014 10 16.0934 0 0
3:55 am 03:55 Cloudy 50 10.1 48 8.9 92 92 SW 8 13 29.94 1014 10 16.0934 0 0
4:15 am 04:15 Cloudy 50 10.2 48 8.9 92 92 SW 9 15 29.94 1014 10 16.0934 0 0
4:35 am 04:35 Cloudy 51 10.3 48 9.1 92 92 SW 9 15 29.94 1014 10 16.0934 0 0
4:55 am 04:55 Cloudy 51 10.3 49 9.2 93 93 SW 9 15 29.94 1014 10 16.0934 0 0
5:15 am 05:15 Cloudy 51 10.4 49 9.3 93 93 SW 10 17 29.94 1014 10 16.0934 0 0
5:35 am 05:35 Cloudy 51 10.6 49 9.5 93 93 SW 10 17 29.94 1014 7 11.26538 0 0
5:55 am 05:55 Cloudy 51 10.6 49 9.6 94 94 SW 10 17 29.91 1013 7 11.26538 0 0
6:15 am 06:15 Cloudy 51 10.7 49 9.6 93 93 SW 9 15 29.91 1013 7 11.26538 0 0
6:35 am 06:35 Cloudy 51 10.8 49 9.7 93 93 SW 8 13 29.94 1014 7 11.26538 0 0
6:55 am 06:55 Cloudy 51 10.8 49 9.7 93 93 SW 8 13 29.91 1013 7 11.26538 0 0
7:15 am 07:15 Cloudy 51 10.8 50 9.8 94 94 SW 9 15 29.91 1013 7 11.26538 0 0
7:35 am 07:35 Cloudy 51 10.7 49 9.7 94 94 SSW 10 17 29.91 1013 7 11.26538 0 0
7:55 am 07:55 Cloudy 51 10.8 50 9.8 94 94 SW 9 15 29.94 1014 7 11.26538 0 0
8:15 am 08:15 Cloudy 51 10.8 50 9.8 94 94 SSW 12 19 29.91 1013 7 11.26538 0 0
8:35 am 08:35 Cloudy 52 11 50 9.9 93 93 SW 10 17 29.91 1013 7 11.26538 0 0
8:55 am 08:55 Cloudy 52 11.2 50 10 92 92 SW 10 17 29.94 1014 7 11.26538 0 0
9:15 am 09:15 Cloudy 53 11.4 50 10.1 92 92 SSW 8 13 29.94 1014 10 16.0934 0 0
9:35 am 09:35 Mostly Cloudy 53 11.8 50 10.1 89 89 SW 12 19 29.94 1014 10 16.0934 0 0
9:55 am 09:55 Mostly Cloudy 54 12.2 50 10 87 87 SW 14 22 29.94 1014 10 16.0934 0 0
10:15 am 10:15 Cloudy 54 12.2 49 9.3 83 83 WSW 13 20 29.94 1014 10 16.0934 0 0
10:35 am 10:35 Mostly Cloudy 55 12.5 47 8.3 76 76 WSW 14 22 29.91 1013 10 16.0934 0 0
10:55 am 10:55 Mostly Cloudy 57 13.7 48 9 73 73 WSW 13 20 29.91 1013 10 16.0934 0 0
11:15 am 11:15 Mostly Cloudy 57 14.1 47 8.2 68 68 WSW 16 26 29.91 1013 10 16.0934 0 0
11:35 am 11:35 Mostly Cloudy 58 14.3 46 7.8 65 65 SW 16 26 29.91 1013 10 16.0934 0 0
11:55 am 11:55 Partly Cloudy 58 14.5 46 7.5 63 63 SW 18 30 29.88 1012 10 16.0934 0 0
12:15 pm 12:15 Partly Cloudy 59 14.9 44 6.6 58 58 WSW 17 28 29.85 1011 10 16.0934 0 0
12:35 pm 12:35 Partly Cloudy 60 15.5 44 6.4 55 55 W 15 24 29.85 1011 10 16.0934 0 0
12:55 pm 12:55 Partly Cloudy 60 15.5 42 5.4 51 51 W 16 26 29.85 1011 10 16.0934 0 0
1:15 pm 13:15 Partly Cloudy 61 16.2 39 3.7 44 44 WSW 21 33 29.85 1011 10 16.0934 0 0
1:35 pm 13:35 Mostly Cloudy 60 15.4 36 2.2 41 41 WSW 28 44 29.83 1010 10 16.0934 0 0
1:55 pm 13:55 Partly Cloudy 60 15.7 35 1.7 39 39 WSW 28 44 29.83 1010 10 16.0934 0 0
2:15 pm 14:15 Partly Cloudy 60 15.5 35 1.5 39 39 W 20 31 29.83 1010 10 16.0934 0 0
2:35 pm 14:35 Partly Cloudy 62 16.4 35 1.4 37 37 WSW 20 31 29.83 1010 10 16.0934 0 0
2:55 pm 14:55 Cloudy 62 16.6 35 1.7 37 37 W 20 31 29.83 1010 10 16.0934 0 0
3:15 pm 15:15 Mostly Cloudy 60 15.5 35 1.6 39 39 W 13 20 29.83 1010 10 16.0934 0 0
3:35 pm 15:35 Partly Cloudy 58 14.7 35 1.5 41 41 W 20 31 29.83 1010 10 16.0934 0 0
3:55 pm 15:55 Sunny 58 14.4 34 1.1 41 41 W 17 28 29.8 1009 10 16.0934 0 0
4:15 pm 16:15 Partly Cloudy 58 14.5 33 0.3 38 38 W 23 37 29.83 1010 10 16.0934 0 0
4:35 pm 16:35 Cloudy 60 15.4 32 0 35 35 W 21 33 29.83 1010 10 16.0934 0 0
4:55 pm 16:55 Cloudy 59 14.9 30 -1.3 33 33 W 21 33 29.83 1010 10 16.0934 0 0
5:15 pm 17:15 Cloudy 59 15.2 29 -1.4 32 32 W 21 33 29.83 1010 10 16.0934 0 0
5:35 pm 17:35 Mostly Cloudy 57 14.1 30 -1.1 35 35 W 17 28 29.83 1010 10 16.0934 0 0
5:55 pm 17:55 Cloudy 56 13.6 28 -2 34 34 W 21 33 29.85 1011 10 16.0934 0 0
6:15 pm 18:15 Mostly Cloudy 55 12.9 27 -3 33 33 WNW 17 28 29.88 1012 10 16.0934 0 0
6:35 pm 18:35 Cloudy 54 12.4 27 -2.9 35 35 WNW 23 37 29.88 1012 10 16.0934 0 0
6:55 pm 18:55 Cloudy 50 10.2 31 -0.4 48 48 NW 24 39 29.94 1014 10 16.0934 0 0
7:15 pm 19:15 Cloudy with Light Rain 45 7.3 35 1.6 67 67 WNW 28 44 30 1016 10 16.0934 0 0
7:35 pm 19:35 Cloudy 44 6.6 32 -0.2 62 62 NW 16 26 30.03 1017 10 16.0934 0 0
7:55 pm 19:55 Cloudy 43 6.2 32 0.2 66 66 NW 23 37 30.06 1018 10 16.0934 0 0
8:15 pm 20:15 Cloudy 42 5.7 31 -0.4 65 65 NW 14 22 30.06 1018 10 16.0934 0 0
8:35 pm 20:35 Mostly Cloudy 41 5.2 31 -0.5 67 67 WNW 15 24 30.06 1018 10 16.0934 0 0
8:55 pm 20:55 Clear 40 4.7 31 -0.6 69 69 WNW 16 26 30.09 1019 10 16.0934 0 0
9:15 pm 21:15 Partly Cloudy 40 4.6 30 -0.9 68 68 WNW 20 31 30.09 1019 10 16.0934 0 0
9:35 pm 21:35 Mostly Cloudy 40 4.5 29 -1.4 66 66 WNW 21 33 30.09 1019 10 16.0934 0 0
9:55 pm 21:55 Cloudy 40 4.6 29 -1.5 65 65 WNW 20 31 30.15 1021 10 16.0934 0 0
10:15 pm 22:15 Cloudy 41 4.8 30 -1 66 66 NW 20 31 30.12 1020 10 16.0934 0 0
10:35 pm 22:35 Mostly Cloudy 41 4.9 31 -0.7 67 67 WNW 14 22 30.18 1022 10 16.0934 0 0
10:55 pm 22:55 Cloudy 40 4.4 32 0.1 74 74 WNW 14 22 30.21 1023 10 16.0934 0 0
11:15 pm 23:15 Cloudy 40 4.5 33 0.3 74 74 NW 9 15 30.21 1023 10 16.0934 0 0
11:35 pm 23:35 Cloudy 41 4.8 31 -0.3 70 70 NW 14 22 30.24 1024 10 16.0934 0 0
11:55 pm 23:55 Cloudy 40 4.7 31 -0.4 70 70 NW 15 24 30.24 1024 10 16.0934 0 0

Powered by AerisWeather